SCP
-0 0 0 0 0 0 -0 0 -0 -0 0 0 -0 0 -0 -0 -0 -0 -0 0 0 0 0 -0 0 -0 -0 0 0 0 0 -0 -0 -0 -0 -0 0 0 0 0 0 -0 -0 -0 0 -0 -0 0 0
0 0 0 0 -0 -0 0 0 -0 -0 -0 -0 0 -0 -0 0 0 0 -0 0 0 -0 -0 -0 0 -0 0 0 0 0 0 -0 -0 -0 -0 -0 -0 -0 -0 -0 -0 -0 -0 0 0 0 -0 -0 0
0 0 0 0 -0 -0 0 0 -0 -0 -0 -0 0 -0 0 0 -0 0 0 0 0 0 0 0 0 0 0 0 0 0 0 0 0 0 -0 -0 -0 -0 -0 -0 -0 -0 -0 0 0 -0 -0 0 0
0 0 0 -0 -0 -0 -0 0 -0 -0 -0 -0 -0 0 -0 0 -0 0 0 -0 -0 0 0 0 0 0 0 0 0 0 0 0 0 0 -0 -0 -0 -0 -0 -0 -0 -0 -0 -0 0 0 0 0 0
0 0 0 -0 0 0 0 -0 -0 -0 0 0 0 -0 -0 0 0 0 0 -0 -0 0 -0 -0 0 0 0 0 0 0 0 0 0 0 0 0 -0 -0 -0 -0 -0 -0 0 0 0 0 0 -0 -0
-0 0 -0 -0 -0 -0 0 -0 -0 0 -0 -0 -0 -0 -0 0 0 0 0 0 0 -0 0 -0 0 -0 0 0 0 0 0 0 0 -0 0 0 0 0 0 -0 0 -0 0 0 0 0 0 0 0
0 0 0 0 -0 0 0 0 0 -0 -0 -0 -0 -0 0 -0 0 0 0 -0 -0 -0 -0 0 -0 0 -0 0 0 0 0 -0 -0 0 0 0 0 0 0 0 0 0 0 0 0 0 0 0 0
0 0 0 0 -0 -0 -0 0 0 -0 -0 -0 -0 -0 -0 -0 0 0 0 -0 0 0 0 0 -0 0 0 0 -0 0 -0 0 0 0 0 0 0 0 0 0 0 0 0 0 0 0 0 0 0
-0 -0 0 0 -0 0 0 -0 0 0 0 -0 -0 -0 -0 -0 0 0 0 -0 -0 0 0 -0 -0 0 0 0 0 0 -0 -0 -0 -0 0 0 0 0 0 0 0 0 0 0 0 0 0 0 0
-0 -0 0 -0 -0 0 0 0 -0 -0 0 0 -0 -0 -0 -0 -0 -0 -0 -0 -0 -0 -0 0 0 0 0 0 0 0 0 0 0 0 0 0 0 0 0 0 0 0 0 0 0 0 0 0 0
0 -0 -0 -0 -0 0 -0 -0 0 -0 -0 -0 -0 -0 -0 -0 0 0 0 -0 -0 -0 -0 -0 0 0 0 0 0 0 0 0 0 0 0 0 0 0 0 0 0 0 0 0 0 0 0 0 0
0 0 -0 -0 -0 -0 0 0 -0 -0 0 0 -0 -0 -0 -0 -0 0 0 0 -0 -0 -0 0 0 0 0 0 0 0 0 0 0 0 0 0 0 0 0 0 0 0 0 0 0 0 0 0 0
0 0 -0 -0 -0 -0 0 0 0 -0 0 0 -0 0 -0 -0 -0 -0 -0 0 0 0 0 0 0 0 0 0 0 0 0 0 0 0 0 0 0 0 0 0 0 0 0 0 0 0 0 0 0
0 0 -0 -0 -0 -0 0 0 0 0 0 -0 -0 0 0 -0 0 -0 -0 0 0 0 0 0 0 0 0 0 0 0 0 0 0 0 0 0 0 0 0 0 0 0 0 0 0 0 0 0 0
0 0 0 0 -0 0 0 0 0 0 -0 0 0 0 0 -0 -0 0 -0 0 0 0 0 0 0 0 0 0 0 0 0 0 0 0 0 0 0 0 1 0 0 0 0 0 0 0 0 0 0
0 0 -0 0 0 0 0 -0 0 0 -0 0 0 0 0 0 -0 -0 -0 0 0 0 0 0 -0 -0 0 0 0 0 0 0 0 0 0 0 0 0 0 0 0 1 0 0 0 0 0 0 0
0 0 0 0 0 0 0 -0 0 -0 0 0 -0 0 0 0 0 -0 0 0 0 0 0 0 -0 -0 0 0 0 0 0 0 0 0 0 0 0 0 0 0 0 1 0 0 0 0 0 0 0
0 0 0 0 -0 0 -0 0 0 0 0 -0 0 -0 0 0 -0 -0 -0 0 0 0 0 -0 0 -0 0 0 0 0 0 0 0 0 0 0 0 0 1 0 1 1 0 0 0 0 0 0 0
0 0 0 0 -0 -0 0 0 -0 -0 -0 -0 -0 0 -0 -0 -0 -0 -0 -0 0 0 0 -0 0 0 0 0 0 0 0 0 0 0 0 0 0 0 0 0 1 1 1 1 0 0 0 0 0
0 0 0 -0 -0 -0 -0 -0 -0 -0 0 0 -0 -0 -0 0 0 0 -0 -0 -0 -0 0 0 0 0 0 0 0 0 0 0 0 0 0 0 0 0 0 0 0 1 0 1 0 1 0 0 0
0 0 -0 -0 -0 -0 -0 -0 -0 0 0 0 0 0 -0 -0 0 -0 -0 -0 -0 -0 -0 0 -0 0 0 0 0 0 0 0 0 -0 -0 -0 0 0 0 0 0 1 1 0 1 1 1 0 0
0 0 -0 -0 -0 0 -0 -0 0 0 0 0 -0 -0 -0 -0 0 -0 -0 -0 -0 -0 -0 0 0 -0 0 0 0 0 0 0 0 -0 -0 -0 0 0 0 0 0 0 0 1 1 0 0 0 0
0 0 -0 -0 -0 -0 -0 -0 -0 0 -0 -0 -0 -0 0 -0 0 0 -0 -0 -0 -0 -0 0 -0 -0 0 0 0 0 0 0 0 0 -0 0 -0 0 -0 0 0 0 0 0 0 0 0 0 0
0 0 0 -0 -0 -0 -0 -0 -0 -0 -0 -0 -0 -0 0 0 -0 -0 0 -0 -0 -0 0 -0 -0 -0 0 0 0 0 0 0 0 0 0 -0 -0 -0 -0 -0 0 0 0 0 0 0 0 0 0
0 0 -0 -0 -0 0 -0 -0 0 -0 0 -0 -0 -0 -0 -0 0 -0 -0 -0 -0 -0 -0 0 -0 -0 0 0 0 0 0 0 0 0 0 0 -0 -0 -0 -0 -0 -0 0 0 0 0 0 0 0
0 0 0 -0 -0 -0 -0 -0 0 -0 0 0 0 -0 -0 -0 0 -0 -0 -0 0 -0 -0 0 0 -0 0 0 0 0 0 0 -0 -0 0 -0 0 0 0 -0 0 0 0 0 0 -0 0 0 0
0 0 0 0 -0 0 -0 -0 -0 -0 -0 -0 -0 0 0 -0 -0 0 0 0 0 0 0 -0 0 0 0 0 0 0 0 0 0 0 -0 -0 0 0 0 0 -0 -0 -0 -0 0 -0 0 0 0
0 0 0 0 -0 -0 0 -0 0 -0 -0 0 -0 0 0 -0 0 0 0 0 0 0 0 0 0 0 0 0 0 0 0 0 0 0 0 0 0 0 0 0 -0 -0 -0 -0 -0 -0 -0 -0 -0
0 0 0 0 0 0 -0 -0 0 -0 -0 -0 -0 -0 0 -0 0 0 0 0 0 0 0 0 0 0 0 -0 -0 0 0 0 0 0 -0 -0 -0 -0 0 -0 0 0 -0 -0 -0 -0 0 -0 -0
0 0 0 0 -0 0 0 -0 0 0 -0 -0 -0 -0 0 0 0 0 0 0 0 0 0 0 0 0 0 0 0 -0 -0 0 0 -0 0 0 0 0 -0 0 -0 -0 0 0 -0 -0 -0 0 0
Wind_Speed_500mb
8 4 3 1 7 7 17 12 23 26 22 15 16 10 27 24 19 17 29 25 27 24 21 21 24 23 26 25 28 33 35 35 35 35 35 35 35 34 35 34 31 32 31 31 30 29 28 31 35
2 3 1 5 2 16 12 15 25 21 27 30 21 19 17 23 22 36 31 29 28 25 22 19 23 25 26 26 28 31 34 35 34 33 33 34 35 36 37 38 35 34 33 33 35 35 36 35 35
1 4 3 6 4 6 14 15 28 28 33 16 11 18 12 15 35 21 34 32 28 27 23 25 25 26 27 28 28 28 31 32 32 32 31 34 35 36 40 41 41 39 40 38 37 35 36 28 31
4 2 4 6 21 12 14 18 30 36 24 9 22 20 22 29 18 32 35 31 27 27 21 26 26 26 26 29 28 28 30 28 29 31 30 30 32 33 35 35 37 39 36 37 33 34 29 29 31
1 3 3 6 21 21 20 22 32 24 14 18 4 19 31 18 36 39 36 32 29 26 23 22 24 26 27 28 27 28 27 28 27 25 27 28 29 28 30 35 36 36 38 38 31 33 33 30 31
7 0 11 7 22 21 17 21 22 12 18 20 29 45 24 29 39 36 34 32 29 25 24 21 24 24 27 28 28 26 26 24 25 27 27 26 25 28 31 34 37 39 39 32 34 35 36 33 30
1 2 6 14 23 15 11 7 15 17 17 18 36 26 26 36 36 36 33 32 28 25 22 23 21 24 25 29 27 26 23 23 24 27 26 23 27 28 33 33 34 36 34 33 34 35 34 34 33
3 2 14 4 15 9 6 13 13 11 15 25 18 14 38 45 38 36 32 30 26 23 20 20 26 28 24 25 25 25 26 26 26 26 24 27 30 34 33 30 31 31 30 31 31 34 34 30 30
4 2 15 14 6 10 3 17 11 8 24 15 12 21 49 47 41 38 34 29 25 23 20 17 15 21 28 24 24 25 26 26 28 26 33 34 24 25 26 27 29 28 28 27 28 30 30 31 29
7 7 7 19 16 8 9 12 16 13 21 19 29 38 51 46 43 39 35 30 25 22 21 21 21 18 23 22 22 27 27 21 23 26 30 25 28 29 27 31 29 26 23 24 24 25 32 27 15
6 7 13 20 27 15 11 11 3 17 16 25 34 54 51 45 40 36 31 27 23 22 19 20 23 22 23 23 23 26 20 21 26 27 30 28 22 22 20 18 15 14 20 16 18 20 19 20 18
7 11 9 21 19 16 10 3 5 11 8 12 42 56 51 43 38 34 30 27 23 21 21 23 22 23 27 20 20 21 19 23 23 20 23 22 18 16 18 18 17 19 19 22 23 20 22 21 23
5 10 17 23 27 22 22 19 8 10 15 37 49 45 42 36 32 29 27 24 23 22 21 23 22 22 20 26 22 22 21 24 22 18 16 15 15 16 17 20 15 15 20 20 23 24 26 27 26
16 12 17 24 27 17 15 8 3 12 30 38 43 39 36 32 30 27 26 25 24 23 22 22 22 22 21 21 24 23 24 25 23 17 14 16 14 15 13 14 15 15 17 18 20 24 25 26 25
22 20 17 14 23 11 25 4 9 13 30 37 37 36 33 29 27 25 25 24 25 24 24 24 24 23 22 22 24 22 21 24 20 13 13 13 13 14 17 11 13 13 14 19 19 21 22 21 20
11 10 10 2 14 16 16 25 13 10 24 38 37 35 33 29 26 23 24 24 24 25 27 26 25 26 25 26 26 20 23 21 19 12 9 12 14 18 13 11 12 16 14 14 16 18 19 18 16
11 2 10 10 7 15 5 6 29 20 16 40 38 37 35 31 27 25 26 26 24 27 27 28 27 28 29 25 21 21 23 20 17 12 10 15 15 15 13 12 14 18 14 14 17 17 17 15 14
18 11 16 15 7 28 11 12 8 30 17 40 42 38 36 35 33 29 28 28 26 28 28 29 27 30 29 25 25 21 20 18 16 11 12 16 14 18 15 12 15 18 14 13 17 21 16 12 11
3 15 19 20 17 11 11 17 11 23 27 36 42 44 42 37 34 32 31 31 30 30 30 30 28 31 33 28 25 23 21 19 15 14 20 16 19 19 18 10 10 13 12 13 18 13 11 6 9
8 7 20 17 8 5 16 13 19 31 24 41 42 43 40 40 38 35 35 34 35 34 33 33 32 33 33 29 27 24 24 18 17 18 19 15 15 16 11 12 7 13 10 15 19 12 7 6 9
14 8 11 7 14 7 5 15 16 12 28 41 42 44 45 41 41 40 39 38 36 36 36 35 35 32 33 31 30 26 27 21 18 19 17 17 17 13 12 11 8 7 14 7 10 5 8 4 3
23 11 8 14 17 10 6 3 2 23 30 43 51 42 44 47 44 42 42 41 39 36 36 36 37 36 34 33 31 29 26 22 20 21 19 17 21 16 11 14 12 9 7 6 6 2 7 9 1
10 7 12 10 6 11 3 9 15 14 20 35 50 50 44 50 51 45 43 43 39 37 37 38 39 41 33 35 32 32 28 21 20 22 22 21 22 21 13 15 16 12 5 8 7 1 5 6 7
7 12 11 12 11 17 2 13 4 15 27 36 46 62 50 47 50 46 45 43 41 38 37 37 39 43 42 37 34 35 27 25 24 24 21 18 16 16 17 18 15 14 12 9 8 9 3 2 2
26 25 13 15 14 7 6 12 10 1 15 34 53 65 67 52 51 49 45 44 45 44 41 39 40 42 42 39 33 36 31 30 30 29 23 20 18 18 20 22 22 14 17 18 14 15 13 5 5
28 29 15 14 8 5 8 7 8 9 13 33 28 55 63 64 58 52 49 49 48 46 44 43 42 42 41 40 37 36 31 32 29 29 24 23 20 18 21 23 21 18 15 17 21 14 15 14 9
21 18 22 17 11 10 7 11 18 4 15 19 21 41 53 67 62 56 53 50 48 47 47 46 43 42 41 40 41 38 36 31 28 27 29 27 26 20 23 21 24 23 20 21 21 18 19 20 15
23 12 18 18 9 10 10 7 12 13 7 17 18 27 53 73 63 60 53 49 49 49 45 42 42 42 41 40 41 38 37 41 37 34 32 27 28 26 24 25 26 26 28 26 27 22 23 24 19
16 21 23 11 16 1 7 7 12 1 4 6 14 23 32 63 59 55 54 50 48 50 47 44 42 41 42 42 41 39 36 35 38 34 35 35 35 34 34 37 31 29 28 28 32 30 25 24 22
24 23 29 17 19 10 10 1 9 8 3 16 21 12 19 32 57 52 53 52 47 50 49 48 45 44 42 41 42 39 37 35 33 39 35 35 33 30 31 33 34 29 28 27 28 28 25 27 27
Wind_Direction_500mb
10 20 356 82 234 216 121 109 107 126 131 117 111 89 80 37 8 83 131 130 124 123 114 116 112 113 115 108 102 101 97 97 93 91 90 89 90 91 96 99 98 96 95 96 88 91 95 107 111
212 353 356 306 256 147 111 128 136 133 116 119 103 104 63 70 82 118 123 129 122 116 113 115 111 113 110 109 104 103 97 96 94 92 93 90 89 88 93 92 92 92 94 91 88 88 88 94 109
135 12 96 313 207 74 116 136 129 116 132 113 98 67 51 92 121 111 135 129 125 122 123 119 115 112 110 112 107 104 102 94 94 90 89 87 88 95 98 91 89 89 92 91 88 86 86 93 97
244 7 343 6 105 82 110 132 134 134 126 83 114 83 87 122 110 131 130 127 122 111 119 114 115 114 113 113 110 106 105 99 97 94 92 92 91 95 102 96 89 90 88 91 82 84 98 97 97
124 206 84 67 90 100 95 116 133 135 128 123 98 111 113 110 125 129 129 125 120 121 114 116 115 116 115 113 112 107 103 98 93 90 93 96 94 98 99 97 93 91 83 86 84 83 84 91 94
213 182 157 119 121 93 96 131 148 144 128 117 116 124 101 131 134 133 130 128 123 120 118 118 118 119 116 117 113 109 104 96 95 96 98 96 96 102 106 109 104 105 107 100 88 81 80 86 92
84 113 82 122 133 120 77 116 179 150 147 122 136 126 130 144 142 138 135 132 127 125 128 120 125 117 111 118 114 111 103 100 100 96 91 91 100 108 112 115 111 106 101 91 86 79 77 78 81
280 209 131 75 165 115 57 101 107 158 97 136 156 155 154 153 147 142 139 135 135 132 126 125 134 125 106 109 109 107 106 106 102 96 95 92 95 102 106 106 108 101 90 88 80 72 71 77 78
105 215 169 149 168 130 87 124 91 130 142 146 141 156 154 154 148 147 145 144 143 138 134 126 112 123 129 119 119 108 107 103 92 96 100 81 95 93 101 119 100 93 87 78 70 63 62 76 83
264 29 121 148 137 181 133 116 118 140 139 131 127 133 150 153 155 156 154 155 154 154 144 146 133 124 122 134 130 117 104 116 112 110 94 97 99 107 103 98 93 84 74 59 56 58 68 78 75
56 40 114 139 142 175 119 122 117 161 160 164 159 150 154 159 162 162 160 162 166 161 156 150 151 142 134 141 141 116 113 112 115 108 102 106 94 92 98 90 81 70 66 74 66 65 87 102 93
123 65 118 152 159 140 114 31 83 157 26 166 161 154 156 165 168 169 167 166 171 163 160 158 156 156 137 146 130 136 136 127 118 119 95 92 94 90 107 107 88 80 82 78 81 91 103 99 98
144 116 123 150 165 144 131 52 336 113 130 137 148 154 159 167 172 174 172 173 170 166 168 162 160 157 146 140 150 145 137 132 141 119 115 107 96 96 104 104 91 85 84 80 85 97 101 104 105
110 113 114 150 146 124 127 20 295 106 147 149 158 161 164 166 171 171 175 177 175 172 172 167 163 165 158 157 152 146 142 151 144 135 127 111 95 109 110 98 86 81 88 94 98 112 107 109 105
135 123 103 145 160 154 133 286 207 135 164 161 169 171 170 170 172 173 173 175 173 171 177 175 168 169 162 159 146 145 154 153 147 134 126 125 107 126 111 97 95 88 85 85 108 110 109 107 105
198 179 222 66 171 138 162 208 227 188 181 174 174 175 176 177 174 172 169 167 170 169 173 171 167 169 163 157 156 154 162 157 159 145 133 137 131 136 99 96 88 97 86 108 121 121 125 114 114
196 202 124 114 46 135 159 173 224 214 218 190 184 180 180 182 179 177 174 173 174 174 172 170 170 171 164 170 165 161 175 158 160 148 143 153 131 133 109 101 95 92 88 111 127 130 128 116 114
129 141 85 125 84 99 196 229 228 224 235 212 192 186 186 188 184 182 179 177 179 179 177 169 169 175 168 177 173 165 168 165 167 159 157 151 145 137 113 108 108 87 90 103 133 132 132 129 123
82 85 88 101 149 114 162 185 224 195 197 251 209 194 192 193 182 186 184 186 186 187 190 187 176 178 178 177 176 174 172 172 167 164 165 150 152 145 137 106 99 86 89 123 132 117 115 125 134
173 133 99 106 144 210 174 155 186 193 207 225 229 198 206 193 188 189 189 190 192 193 193 193 189 188 185 181 180 179 178 176 171 168 172 161 161 158 137 135 109 123 88 98 136 127 123 121 156
212 252 156 75 160 149 156 163 169 204 199 224 233 225 206 200 193 194 193 194 196 196 197 195 192 195 191 189 190 185 184 179 178 180 177 178 174 169 173 168 159 115 109 104 103 98 135 160 101
248 176 182 156 237 23 325 290 245 175 200 213 215 221 218 209 202 196 198 198 199 199 198 198 195 196 193 189 194 193 185 188 194 188 189 191 187 186 181 188 190 174 137 143 75 70 79 97 85
298 162 207 223 267 260 132 258 129 165 201 211 220 222 226 210 208 205 202 202 200 198 198 198 198 199 194 192 187 185 184 196 189 185 197 179 201 198 196 187 194 192 163 221 202 87 95 49 79
148 168 172 231 271 244 137 289 180 172 205 193 221 221 225 224 208 209 204 200 199 199 197 199 199 203 201 200 198 191 205 194 187 183 184 190 198 211 206 202 205 212 216 227 231 227 286 170 63
198 186 195 222 204 296 126 264 43 339 191 188 191 216 221 216 216 205 204 200 199 198 198 200 199 203 207 208 207 208 209 207 202 200 193 199 208 217 224 213 218 226 231 236 236 243 240 259 236
213 227 259 247 233 227 141 242 78 267 262 192 214 209 211 216 216 204 205 201 200 200 200 199 202 202 206 212 211 208 209 206 208 217 211 219 220 229 226 221 217 223 234 237 241 247 240 253 258
170 232 264 278 171 280 132 241 245 203 179 180 212 195 208 208 209 205 206 205 201 201 202 201 202 204 208 207 212 215 217 205 214 216 221 223 218 225 231 224 228 233 240 247 245 242 250 244 261
263 274 213 232 222 227 102 286 292 192 97 153 204 247 202 203 207 203 205 205 203 204 203 203 204 206 207 207 212 218 222 226 231 229 225 216 223 234 225 235 233 237 243 245 248 248 262 253 252
184 231 246 127 309 138 216 77 18 44 9 174 209 237 200 200 202 208 207 209 205 203 202 204 204 205 207 209 211 213 220 227 234 228 229 230 239 244 245 241 243 248 246 242 248 247 243 258 258
286 279 221 236 234 230 327 244 83 59 70 193 166 130 200 213 202 203 209 209 209 203 202 202 204 206 207 209 212 216 220 224 225 228 229 229 235 240 240 241 248 245 246 243 245 245 244 261 264
Wind_Speed_850mb
8 4 3 1 7 7 17 12 23 26 22 15 16 10 27 24 19 17 29 25 27 24 21 21 24 23 26 25 28 33 35 35 35 35 35 35 35 34 35 34 31 32 31 31 30 29 28 31 35
2 3 1 5 2 16 12 15 25 21 27 30 21 19 17 23 22 36 31 29 28 25 22 19 23 25 26 26 28 31 34 35 34 33 33 34 35 36 37 38 35 34 33 33 35 35 36 35 35
1 4 3 6 4 6 14 15 28 28 33 16 11 18 12 15 35 21 34 32 28 27 23 25 25 26 27 28 28 28 31 32 32 32 31 34 35 36 40 41 41 39 40 38 37 35 36 28 31
4 2 4 6 21 12 14 18 30 36 24 9 22 20 22 29 18 32 35 31 27 27 21 26 26 26 26 29 28 28 30 28 29 31 30 30 32 33 35 35 37 39 36 37 33 34 29 29 31
1 3 3 6 21 21 20 22 32 24 14 18 4 19 31 18 36 39 36 32 29 26 23 22 24 26 27 28 27 28 27 28 27 25 27 28 29 28 30 35 36 36 38 38 31 33 33 30 31
7 0 11 7 22 21 17 21 22 12 18 20 29 45 24 29 39 36 34 32 29 25 24 21 24 24 27 28 28 26 26 24 25 27 27 26 25 28 31 34 37 39 39 32 34 35 36 33 30
1 2 6 14 23 15 11 7 15 17 17 18 36 26 26 36 36 36 33 32 28 25 22 23 21 24 25 29 27 26 23 23 24 27 26 23 27 28 33 33 34 36 34 33 34 35 34 34 33
3 2 14 4 15 9 6 13 13 11 15 25 18 14 38 45 38 36 32 30 26 23 20 20 26 28 24 25 25 25 26 26 26 26 24 27 30 34 33 30 31 31 30 31 31 34 34 30 30
4 2 15 14 6 10 3 17 11 8 24 15 12 21 49 47 41 38 34 29 25 23 20 17 15 21 28 24 24 25 26 26 28 26 33 34 24 25 26 27 29 28 28 27 28 30 30 31 29
7 7 7 19 16 8 9 12 16 13 21 19 29 38 51 46 43 39 35 30 25 22 21 21 21 18 23 22 22 27 27 21 23 26 30 25 28 29 27 31 29 26 23 24 24 25 32 27 15
6 7 13 20 27 15 11 11 3 17 16 25 34 54 51 45 40 36 31 27 23 22 19 20 23 22 23 23 23 26 20 21 26 27 30 28 22 22 20 18 15 14 20 16 18 20 19 20 18
7 11 9 21 19 16 10 3 5 11 8 12 42 56 51 43 38 34 30 27 23 21 21 23 22 23 27 20 20 21 19 23 23 20 23 22 18 16 18 18 17 19 19 22 23 20 22 21 23
5 10 17 23 27 22 22 19 8 10 15 37 49 45 42 36 32 29 27 24 23 22 21 23 22 22 20 26 22 22 21 24 22 18 16 15 15 16 17 20 15 15 20 20 23 24 26 27 26
16 12 17 24 27 17 15 8 3 12 30 38 43 39 36 32 30 27 26 25 24 23 22 22 22 22 21 21 24 23 24 25 23 17 14 16 14 15 13 14 15 15 17 18 20 24 25 26 25
22 20 17 14 23 11 25 4 9 13 30 37 37 36 33 29 27 25 25 24 25 24 24 24 24 23 22 22 24 22 21 24 20 13 13 13 13 14 17 11 13 13 14 19 19 21 22 21 20
11 10 10 2 14 16 16 25 13 10 24 38 37 35 33 29 26 23 24 24 24 25 27 26 25 26 25 26 26 20 23 21 19 12 9 12 14 18 13 11 12 16 14 14 16 18 19 18 16
11 2 10 10 7 15 5 6 29 20 16 40 38 37 35 31 27 25 26 26 24 27 27 28 27 28 29 25 21 21 23 20 17 12 10 15 15 15 13 12 14 18 14 14 17 17 17 15 14
18 11 16 15 7 28 11 12 8 30 17 40 42 38 36 35 33 29 28 28 26 28 28 29 27 30 29 25 25 21 20 18 16 11 12 16 14 18 15 12 15 18 14 13 17 21 16 12 11
3 15 19 20 17 11 11 17 11 23 27 36 42 44 42 37 34 32 31 31 30 30 30 30 28 31 33 28 25 23 21 19 15 14 20 16 19 19 18 10 10 13 12 13 18 13 11 6 9
8 7 20 17 8 5 16 13 19 31 24 41 42 43 40 40 38 35 35 34 35 34 33 33 32 33 33 29 27 24 24 18 17 18 19 15 15 16 11 12 7 13 10 15 19 12 7 6 9
14 8 11 7 14 7 5 15 16 12 28 41 42 44 45 41 41 40 39 38 36 36 36 35 35 32 33 31 30 26 27 21 18 19 17 17 17 13 12 11 8 7 14 7 10 5 8 4 3
23 11 8 14 17 10 6 3 2 23 30 43 51 42 44 47 44 42 42 41 39 36 36 36 37 36 34 33 31 29 26 22 20 21 19 17 21 16 11 14 12 9 7 6 6 2 7 9 1
10 7 12 10 6 11 3 9 15 14 20 35 50 50 44 50 51 45 43 43 39 37 37 38 39 41 33 35 32 32 28 21 20 22 22 21 22 21 13 15 16 12 5 8 7 1 5 6 7
7 12 11 12 11 17 2 13 4 15 27 36 46 62 50 47 50 46 45 43 41 38 37 37 39 43 42 37 34 35 27 25 24 24 21 18 16 16 17 18 15 14 12 9 8 9 3 2 2
26 25 13 15 14 7 6 12 10 1 15 34 53 65 67 52 51 49 45 44 45 44 41 39 40 42 42 39 33 36 31 30 30 29 23 20 18 18 20 22 22 14 17 18 14 15 13 5 5
28 29 15 14 8 5 8 7 8 9 13 33 28 55 63 64 58 52 49 49 48 46 44 43 42 42 41 40 37 36 31 32 29 29 24 23 20 18 21 23 21 18 15 17 21 14 15 14 9
21 18 22 17 11 10 7 11 18 4 15 19 21 41 53 67 62 56 53 50 48 47 47 46 43 42 41 40 41 38 36 31 28 27 29 27 26 20 23 21 24 23 20 21 21 18 19 20 15
23 12 18 18 9 10 10 7 12 13 7 17 18 27 53 73 63 60 53 49 49 49 45 42 42 42 41 40 41 38 37 41 37 34 32 27 28 26 24 25 26 26 28 26 27 22 23 24 19
16 21 23 11 16 1 7 7 12 1 4 6 14 23 32 63 59 55 54 50 48 50 47 44 42 41 42 42 41 39 36 35 38 34 35 35 35 34 34 37 31 29 28 28 32 30 25 24 22
24 23 29 17 19 10 10 1 9 8 3 16 21 12 19 32 57 52 53 52 47 50 49 48 45 44 42 41 42 39 37 35 33 39 35 35 33 30 31 33 34 29 28 27 28 28 25 27 27
Wind_Direction_850mb
10 20 356 82 234 216 121 109 107 126 131 117 111 89 80 37 8 83 131 130 124 123 114 116 112 113 115 108 102 101 97 97 93 91 90 89 90 91 96 99 98 96 95 96 88 91 95 107 111
212 353 356 306 256 147 111 128 136 133 116 119 103 104 63 70 82 118 123 129 122 116 113 115 111 113 110 109 104 103 97 96 94 92 93 90 89 88 93 92 92 92 94 91 88 88 88 94 109
135 12 96 313 207 74 116 136 129 116 132 113 98 67 51 92 121 111 135 129 125 122 123 119 115 112 110 112 107 104 102 94 94 90 89 87 88 95 98 91 89 89 92 91 88 86 86 93 97
244 7 343 6 105 82 110 132 134 134 126 83 114 83 87 122 110 131 130 127 122 111 119 114 115 114 113 113 110 106 105 99 97 94 92 92 91 95 102 96 89 90 88 91 82 84 98 97 97
124 206 84 67 90 100 95 116 133 135 128 123 98 111 113 110 125 129 129 125 120 121 114 116 115 116 115 113 112 107 103 98 93 90 93 96 94 98 99 97 93 91 83 86 84 83 84 91 94
213 182 157 119 121 93 96 131 148 144 128 117 116 124 101 131 134 133 130 128 123 120 118 118 118 119 116 117 113 109 104 96 95 96 98 96 96 102 106 109 104 105 107 100 88 81 80 86 92
84 113 82 122 133 120 77 116 179 150 147 122 136 126 130 144 142 138 135 132 127 125 128 120 125 117 111 118 114 111 103 100 100 96 91 91 100 108 112 115 111 106 101 91 86 79 77 78 81
280 209 131 75 165 115 57 101 107 158 97 136 156 155 154 153 147 142 139 135 135 132 126 125 134 125 106 109 109 107 106 106 102 96 95 92 95 102 106 106 108 101 90 88 80 72 71 77 78
105 215 169 149 168 130 87 124 91 130 142 146 141 156 154 154 148 147 145 144 143 138 134 126 112 123 129 119 119 108 107 103 92 96 100 81 95 93 101 119 100 93 87 78 70 63 62 76 83
264 29 121 148 137 181 133 116 118 140 139 131 127 133 150 153 155 156 154 155 154 154 144 146 133 124 122 134 130 117 104 116 112 110 94 97 99 107 103 98 93 84 74 59 56 58 68 78 75
56 40 114 139 142 175 119 122 117 161 160 164 159 150 154 159 162 162 160 162 166 161 156 150 151 142 134 141 141 116 113 112 115 108 102 106 94 92 98 90 81 70 66 74 66 65 87 102 93
123 65 118 152 159 140 114 31 83 157 26 166 161 154 156 165 168 169 167 166 171 163 160 158 156 156 137 146 130 136 136 127 118 119 95 92 94 90 107 107 88 80 82 78 81 91 103 99 98
144 116 123 150 165 144 131 52 336 113 130 137 148 154 159 167 172 174 172 173 170 166 168 162 160 157 146 140 150 145 137 132 141 119 115 107 96 96 104 104 91 85 84 80 85 97 101 104 105
110 113 114 150 146 124 127 20 295 106 147 149 158 161 164 166 171 171 175 177 175 172 172 167 163 165 158 157 152 146 142 151 144 135 127 111 95 109 110 98 86 81 88 94 98 112 107 109 105
135 123 103 145 160 154 133 286 207 135 164 161 169 171 170 170 172 173 173 175 173 171 177 175 168 169 162 159 146 145 154 153 147 134 126 125 107 126 111 97 95 88 85 85 108 110 109 107 105
198 179 222 66 171 138 162 208 227 188 181 174 174 175 176 177 174 172 169 167 170 169 173 171 167 169 163 157 156 154 162 157 159 145 133 137 131 136 99 96 88 97 86 108 121 121 125 114 114
196 202 124 114 46 135 159 173 224 214 218 190 184 180 180 182 179 177 174 173 174 174 172 170 170 171 164 170 165 161 175 158 160 148 143 153 131 133 109 101 95 92 88 111 127 130 128 116 114
129 141 85 125 84 99 196 229 228 224 235 212 192 186 186 188 184 182 179 177 179 179 177 169 169 175 168 177 173 165 168 165 167 159 157 151 145 137 113 108 108 87 90 103 133 132 132 129 123
82 85 88 101 149 114 162 185 224 195 197 251 209 194 192 193 182 186 184 186 186 187 190 187 176 178 178 177 176 174 172 172 167 164 165 150 152 145 137 106 99 86 89 123 132 117 115 125 134
173 133 99 106 144 210 174 155 186 193 207 225 229 198 206 193 188 189 189 190 192 193 193 193 189 188 185 181 180 179 178 176 171 168 172 161 161 158 137 135 109 123 88 98 136 127 123 121 156
212 252 156 75 160 149 156 163 169 204 199 224 233 225 206 200 193 194 193 194 196 196 197 195 192 195 191 189 190 185 184 179 178 180 177 178 174 169 173 168 159 115 109 104 103 98 135 160 101
248 176 182 156 237 23 325 290 245 175 200 213 215 221 218 209 202 196 198 198 199 199 198 198 195 196 193 189 194 193 185 188 194 188 189 191 187 186 181 188 190 174 137 143 75 70 79 97 85
298 162 207 223 267 260 132 258 129 165 201 211 220 222 226 210 208 205 202 202 200 198 198 198 198 199 194 192 187 185 184 196 189 185 197 179 201 198 196 187 194 192 163 221 202 87 95 49 79
148 168 172 231 271 244 137 289 180 172 205 193 221 221 225 224 208 209 204 200 199 199 197 199 199 203 201 200 198 191 205 194 187 183 184 190 198 211 206 202 205 212 216 227 231 227 286 170 63
198 186 195 222 204 296 126 264 43 339 191 188 191 216 221 216 216 205 204 200 199 198 198 200 199 203 207 208 207 208 209 207 202 200 193 199 208 217 224 213 218 226 231 236 236 243 240 259 236
213 227 259 247 233 227 141 242 78 267 262 192 214 209 211 216 216 204 205 201 200 200 200 199 202 202 206 212 211 208 209 206 208 217 211 219 220 229 226 221 217 223 234 237 241 247 240 253 258
170 232 264 278 171 280 132 241 245 203 179 180 212 195 208 208 209 205 206 205 201 201 202 201 202 204 208 207 212 215 217 205 214 216 221 223 218 225 231 224 228 233 240 247 245 242 250 244 261
263 274 213 232 222 227 102 286 292 192 97 153 204 247 202 203 207 203 205 205 203 204 203 203 204 206 207 207 212 218 222 226 231 229 225 216 223 234 225 235 233 237 243 245 248 248 262 253 252
184 231 246 127 309 138 216 77 18 44 9 174 209 237 200 200 202 208 207 209 205 203 202 204 204 205 207 209 211 213 220 227 234 228 229 230 239 244 245 241 243 248 246 242 248 247 243 258 258
286 279 221 236 234 230 327 244 83 59 70 193 166 130 200 213 202 203 209 209 209 203 202 202 204 206 207 209 212 216 220 224 225 228 229 229 235 240 240 241 248 245 246 243 245 245 244 261 264